IMR1101 OIIE-OAKB

Flight info

Callsign IMR1101
Flight time N/A
Altitude 31000
Route DHN B411 LOXED N636 PAMTU V390 SAKUX V338 KULTA
Aircraft A346/H-SDE2E3FGHIJ3J4J5M1RWXY/LB1D1

Departure

Time N/A
Airport Imam Khomeini International Airport (OIIE)

Arrival

Time 2026-05-09 14:58
Airport Kabul International Airport (OAKB)
Time Latitude Longitude Altitude Speed Heading
2026-05-09 14:27 34.53913 67.34515 31091 ft 505 kts 90°
2026-05-09 14:28 34.53842 67.43051 31104 ft 505 kts 90°
2026-05-09 14:28 34.53772 67.50713 31097 ft 505 kts 90°
2026-05-09 14:29 34.53686 67.59245 31097 ft 505 kts 90°
2026-05-09 14:29 34.53598 67.67769 30833 ft 504 kts 90°
2026-05-09 14:30 34.53554 67.72015 30481 ft 500 kts 90°
2026-05-09 14:30 34.53507 67.76224 29968 ft 497 kts 91°
2026-05-09 14:30 34.53460 67.80414 29339 ft 495 kts 91°
2026-05-09 14:30 34.53409 67.84592 28695 ft 494 kts 91°
2026-05-09 14:31 34.53357 67.88763 28033 ft 493 kts 91°
2026-05-09 14:31 34.53303 67.92927 27375 ft 493 kts 91°
2026-05-09 14:31 34.53248 67.97089 26702 ft 492 kts 91°
2026-05-09 14:31 34.53192 68.01248 26029 ft 492 kts 91°
2026-05-09 14:32 34.53134 68.05397 25350 ft 492 kts 91°
2026-05-09 14:32 34.53074 68.09562 24673 ft 492 kts 92°
2026-05-09 14:32 34.53014 68.13633 24231 ft 486 kts 92°
2026-05-09 14:32 34.52951 68.17706 23799 ft 479 kts 92°
2026-05-09 14:33 34.52888 68.21724 23312 ft 474 kts 92°
2026-05-09 14:33 34.52825 68.25699 22805 ft 468 kts 91°
2026-05-09 14:33 34.52761 68.29626 22338 ft 463 kts 91°
2026-05-09 14:33 34.52698 68.33393 21890 ft 457 kts 92°
2026-05-09 14:34 34.52646 68.36473 21535 ft 452 kts 92°
2026-05-09 14:34 34.52578 68.40267 21102 ft 447 kts 91°
2026-05-09 14:34 34.52510 68.44029 20659 ft 442 kts 92°
2026-05-09 14:34 34.52443 68.47745 20221 ft 437 kts 92°
2026-05-09 14:35 34.52374 68.51418 19798 ft 433 kts 92°
2026-05-09 14:35 34.52305 68.55057 19366 ft 429 kts 91°
2026-05-09 14:35 34.52235 68.58651 18954 ft 425 kts 91°
2026-05-09 14:35 34.52165 68.62228 18484 ft 421 kts 91°
2026-05-09 14:36 34.52096 68.65781 18028 ft 418 kts 91°
2026-05-09 14:36 34.52026 68.69293 17565 ft 414 kts 91°
2026-05-09 14:36 34.51955 68.72726 17138 ft 410 kts 91°
2026-05-09 14:36 34.51884 68.76154 16673 ft 406 kts 91°
2026-05-09 14:37 34.51812 68.79581 16243 ft 403 kts 91°
2026-05-09 14:37 34.51739 68.82971 15825 ft 400 kts 91°
2026-05-09 14:37 34.51664 68.86334 15366 ft 397 kts 91°
2026-05-09 14:37 34.51589 68.89683 14941 ft 395 kts 91°
2026-05-09 14:38 34.51516 68.93004 14513 ft 393 kts 90°
2026-05-09 14:38 34.51442 68.96308 14093 ft 391 kts 90°
2026-05-09 14:38 34.51369 68.99611 13624 ft 389 kts 91°
2026-05-09 14:38 34.51311 69.02077 13260 ft 387 kts 90°
2026-05-09 14:40 34.51251 69.04687 12911 ft 384 kts 91°
2026-05-09 14:40 34.51178 69.07916 12488 ft 381 kts 91°
2026-05-09 14:41 34.51172 69.08205 12456 ft 381 kts 91°
2026-05-09 14:43 34.51125 69.10155 12195 ft 379 kts 91°
2026-05-09 14:43 34.51049 69.13339 11763 ft 376 kts 91°
2026-05-09 14:43 34.51021 69.14595 11594 ft 374 kts 90°
2026-05-09 14:45 34.50968 69.16849 11296 ft 372 kts 91°
2026-05-09 14:45 34.50891 69.19986 10878 ft 369 kts 90°
2026-05-09 14:45 34.50808 69.23076 10521 ft 363 kts 90°
2026-05-09 14:46 34.50733 69.26082 10393 ft 349 kts 90°
2026-05-09 14:46 34.50661 69.28966 10326 ft 334 kts 90°
2026-05-09 14:46 34.50593 69.31722 10251 ft 320 kts 90°
2026-05-09 14:46 34.50526 69.34360 10209 ft 305 kts 90°
2026-05-09 14:47 34.50461 69.36877 10162 ft 292 kts 90°
2026-05-09 14:47 34.50399 69.39281 10131 ft 278 kts 89°
2026-05-09 14:47 34.50366 69.41568 10085 ft 263 kts 82°
2026-05-09 14:47 34.50865 69.43588 10058 ft 241 kts 58°
2026-05-09 14:48 34.51921 69.45036 9954 ft 222 kts 30°
2026-05-09 14:48 34.53330 69.45442 9862 ft 204 kts 351°
2026-05-09 14:48 34.54524 69.44645 9864 ft 200 kts 309°
2026-05-09 14:48 34.54990 69.43056 9903 ft 206 kts 278°
2026-05-09 14:49 34.55013 69.41304 9854 ft 208 kts 271°
2026-05-09 14:49 34.54960 69.39552 9867 ft 206 kts 270°
2026-05-09 14:49 34.54894 69.37840 9656 ft 202 kts 270°
2026-05-09 14:49 34.54828 69.36143 9297 ft 205 kts 270°
2026-05-09 14:50 34.54761 69.34419 8984 ft 203 kts 270°
2026-05-09 14:50 34.54653 69.32731 8724 ft 198 kts 261°
2026-05-09 14:50 34.54146 69.31202 8461 ft 195 kts 235°
2026-05-09 14:50 34.53144 69.30130 8202 ft 194 kts 207°
2026-05-09 14:51 34.51801 69.29695 8047 ft 208 kts 186°
2026-05-09 14:51 34.50376 69.29837 8526 ft 203 kts 152°
2026-05-09 14:51 34.49476 69.31020 9132 ft 189 kts 110°
2026-05-09 14:51 34.49010 69.32509 9611 ft 191 kts 115°
2026-05-09 14:52 34.48361 69.33989 9867 ft 206 kts 104°
2026-05-09 14:52 34.48109 69.35720 9882 ft 210 kts 91°
2026-05-09 14:52 34.48063 69.37499 9883 ft 211 kts 88°
2026-05-09 14:52 34.48035 69.39263 9775 ft 206 kts 94°
2026-05-09 14:53 34.47735 69.40974 9448 ft 208 kts 94°
2026-05-09 14:53 34.47919 69.42659 9057 ft 202 kts 60°
2026-05-09 14:53 34.48890 69.43822 8702 ft 198 kts 23°
2026-05-09 14:53 34.50224 69.43998 8353 ft 196 kts 346°
2026-05-09 14:54 34.51339 69.43122 8086 ft 195 kts 307°
2026-05-09 14:54 34.51795 69.41550 8108 ft 202 kts 282°
2026-05-09 14:54 34.51999 69.39864 8093 ft 199 kts 282°
2026-05-09 14:54 34.52259 69.38300 8041 ft 179 kts 287°
2026-05-09 14:55 34.52585 69.36866 8057 ft 175 kts 289°
2026-05-09 14:55 34.52943 69.35458 7990 ft 174 kts 290°
2026-05-09 14:55 34.53308 69.34046 7762 ft 174 kts 290°
2026-05-09 14:55 34.53668 69.32647 7512 ft 173 kts 289°
2026-05-09 14:56 34.54024 69.31254 7239 ft 172 kts 289°
2026-05-09 14:56 34.54375 69.29867 7049 ft 172 kts 289°
2026-05-09 14:56 34.54730 69.28477 6877 ft 173 kts 289°
2026-05-09 14:56 34.55086 69.27078 6685 ft 173 kts 288°
2026-05-09 14:57 34.55423 69.25670 6491 ft 174 kts 290°
2026-05-09 14:57 34.55792 69.24278 6147 ft 172 kts 290°
2026-05-09 14:57 34.56149 69.22902 5868 ft 170 kts 291°
2026-05-09 14:57 34.56476 69.21660 5846 ft 131 kts 287°
2026-05-09 14:58 34.56692 69.20813 5840 ft 79 kts 287°
2026-05-09 14:58 34.56804 69.20380 5843 ft 31 kts 289°
2026-05-09 14:58 34.56827 69.20310 5847 ft 0 kts 295°
2026-05-09 14:58 34.56830 69.20302 5843 ft 2 kts 290°
2026-05-09 14:59 34.56829 69.20285 5844 ft 2 kts 236°
2026-05-09 14:59 34.56812 69.20277 5846 ft 4 kts 190°
2026-05-09 14:59 34.56773 69.20265 5846 ft 7 kts 196°
2026-05-09 14:59 34.56714 69.20243 5848 ft 10 kts 198°
2026-05-09 15:00 34.56632 69.20212 5848 ft 9 kts 189°
2026-05-09 15:00 34.56585 69.20253 5849 ft 12 kts 117°
2026-05-09 15:00 34.56545 69.20370 5840 ft 18 kts 112°
2026-05-09 15:00 34.56497 69.20515 5848 ft 15 kts 110°
2026-05-09 15:01 34.56410 69.20793 5845 ft 16 kts 112°
2026-05-09 15:01 34.56384 69.20872 5848 ft 5 kts 112°
2026-05-09 15:01 34.56373 69.20884 5846 ft 5 kts 159°
2026-05-09 15:02 34.56331 69.20876 5848 ft 2 kts 194°
2026-05-09 15:02 34.56320 69.20872 5850 ft 1 kts 200°
2026-05-09 15:02 34.56314 69.20869 5849 ft 1 kts 201°
2026-05-09 15:02 34.56307 69.20866 5848 ft 0 kts 201°